Time,TemperatureF,DewpointF,PressureIn,WindDirection,WindDirectionDegrees,WindSpeedMPH,WindSpeedGustMPH,Humidity,HourlyPrecipIn,Conditions,Clouds,dailyrainin,SoftwareType,DateUTC
2013-03-21 00:01:00,34.5,24.7,30.01,NW,318,2.0,9.0,67,0.00,,,0.00,Wunderground v.1.15,2013-03-21 05:01:00,
2013-03-21 00:06:00,34.4,24.6,30.01,NW,309,1.0,9.0,67,0.00,,,0.00,Wunderground v.1.15,2013-03-21 05:06:00,
2013-03-21 00:11:00,34.2,24.4,30.01,NW,311,1.0,9.0,67,0.00,,,0.00,Wunderground v.1.15,2013-03-21 05:11:00,
2013-03-21 00:17:00,34.1,23.9,30.01,NW,309,2.0,9.0,66,0.00,,,0.00,Wunderground v.1.15,2013-03-21 05:17:00,
2013-03-21 00:23:00,33.7,23.5,30.02,NW,314,2.0,9.0,66,0.00,,,0.00,Wunderground v.1.15,2013-03-21 05:23:00,
2013-03-21 00:28:00,33.7,23.5,30.01,NW,307,2.0,9.0,66,0.00,,,0.00,Wunderground v.1.15,2013-03-21 05:28:00,
2013-03-21 00:34:00,33.6,23.4,30.01,NNW,330,3.0,9.0,66,0.00,,,0.00,Wunderground v.1.15,2013-03-21 05:34:00,
2013-03-21 00:39:00,33.4,23.3,30.01,NW,318,4.0,9.0,66,0.00,,,0.00,Wunderground v.1.15,2013-03-21 05:39:00,
2013-03-21 00:44:00,33.2,23.1,30.01,NW,323,3.0,9.0,66,0.00,,,0.00,Wunderground v.1.15,2013-03-21 05:44:00,
2013-03-21 00:50:00,33.1,23.0,30.02,NW,313,2.0,9.0,66,0.00,,,0.00,Wunderground v.1.15,2013-03-21 05:50:00,
2013-03-21 00:55:00,32.9,22.4,30.01,NW,314,3.0,9.0,65,0.00,,,0.00,Wunderground v.1.15,2013-03-21 05:55:00,
2013-03-21 01:00:00,32.7,22.2,30.01,NW,309,3.0,3.0,65,0.00,,,0.00,Wunderground v.1.15,2013-03-21 06:00:00,
2013-03-21 01:06:00,32.4,21.2,30.01,NW,321,3.0,9.0,63,0.00,,,0.00,Wunderground v.1.15,2013-03-21 06:06:00,
2013-03-21 01:11:00,32.1,21.3,30.02,NW,313,2.0,9.0,64,0.00,,,0.00,Wunderground v.1.15,2013-03-21 06:11:00,
2013-03-21 01:17:00,31.7,20.5,30.02,North,358,2.0,9.0,63,0.00,,,0.00,Wunderground v.1.15,2013-03-21 06:17:00,
2013-03-21 01:22:00,31.4,19.5,30.02,NNW,336,3.0,9.0,61,0.00,,,0.00,Wunderground v.1.15,2013-03-21 06:22:00,
2013-03-21 01:27:00,31.4,18.7,30.02,NW,323,4.0,9.0,59,0.00,,,0.00,Wunderground v.1.15,2013-03-21 06:27:00,
2013-03-21 01:33:00,31.2,18.1,30.02,NNW,334,4.0,9.0,58,0.00,,,0.00,Wunderground v.1.15,2013-03-21 06:33:00,
2013-03-21 01:38:00,31.0,18.3,30.02,NW,318,3.0,9.0,59,0.00,,,0.00,Wunderground v.1.15,2013-03-21 06:38:00,
2013-03-21 01:44:00,30.8,17.7,30.02,NNW,328,3.0,9.0,58,0.00,,,0.00,Wunderground v.1.15,2013-03-21 06:44:00,
2013-03-21 01:49:00,30.6,17.6,30.02,NNW,327,3.0,9.0,58,0.00,,,0.00,Wunderground v.1.15,2013-03-21 06:49:00,
2013-03-21 01:54:00,30.5,17.1,30.02,North,349,3.0,9.0,57,0.00,,,0.00,Wunderground v.1.15,2013-03-21 06:54:00,
2013-03-21 02:00:00,30.3,16.9,30.02,NW,323,4.0,4.0,57,0.00,,,0.00,Wunderground v.1.15,2013-03-21 07:00:00,
2013-03-21 02:05:00,30.2,17.2,30.02,North,5,4.0,9.0,58,0.00,,,0.00,Wunderground v.1.15,2013-03-21 07:05:00,
2013-03-21 02:10:00,30.0,16.6,30.02,NNW,332,4.0,4.0,57,0.00,,,0.00,Wunderground v.1.15,2013-03-21 07:10:00,
2013-03-21 02:16:00,30.0,16.6,30.02,North,8,5.0,9.0,57,0.00,,,0.00,Wunderground v.1.15,2013-03-21 07:16:00,
2013-03-21 02:21:00,29.8,16.8,30.02,North,358,4.0,6.0,58,0.00,,,0.00,Wunderground v.1.15,2013-03-21 07:21:00,
2013-03-21 02:26:00,29.7,16.7,30.02,NNE,12,5.0,9.0,58,0.00,,,0.00,Wunderground v.1.15,2013-03-21 07:26:00,
2013-03-21 02:32:00,29.6,16.6,30.02,NNE,24,5.0,9.0,58,0.00,,,0.00,Wunderground v.1.15,2013-03-21 07:32:00,
2013-03-21 02:37:00,29.5,16.5,30.02,NNE,17,5.0,9.0,58,0.00,,,0.00,Wunderground v.1.15,2013-03-21 07:37:00,
2013-03-21 02:42:00,29.3,16.7,30.02,North,10,4.0,9.0,59,0.00,,,0.00,Wunderground v.1.15,2013-03-21 07:42:00,
2013-03-21 02:48:00,29.1,16.5,30.02,NNW,328,4.0,9.0,59,0.00,,,0.00,Wunderground v.1.15,2013-03-21 07:48:00,
2013-03-21 02:53:00,28.9,16.4,30.02,NW,311,2.0,9.0,59,0.00,,,0.00,Wunderground v.1.15,2013-03-21 07:53:00,
2013-03-21 02:59:00,28.8,16.3,30.02,North,352,2.0,9.0,59,0.00,,,0.00,Wunderground v.1.15,2013-03-21 07:59:00,
2013-03-21 03:04:00,28.6,16.5,30.02,NNE,23,3.0,9.0,60,0.00,,,0.00,Wunderground v.1.15,2013-03-21 08:04:00,
2013-03-21 03:10:00,28.6,16.1,30.02,NNW,331,3.0,9.0,59,0.00,,,0.00,Wunderground v.1.15,2013-03-21 08:10:00,
2013-03-21 03:15:00,28.4,16.3,30.02,NNW,339,4.0,9.0,60,0.00,,,0.00,Wunderground v.1.15,2013-03-21 08:15:00,
2013-03-21 03:20:00,28.3,16.2,30.02,NW,316,4.0,4.0,60,0.00,,,0.00,Wunderground v.1.15,2013-03-21 08:20:00,
2013-03-21 03:26:00,28.1,16.7,30.02,NNW,333,3.0,9.0,62,0.00,,,0.00,Wunderground v.1.15,2013-03-21 08:26:00,
2013-03-21 03:31:00,27.9,16.6,30.02,NNW,332,2.0,3.0,62,0.00,,,0.00,Wunderground v.1.15,2013-03-21 08:31:00,
2013-03-21 03:36:00,27.9,16.6,30.02,NNW,328,3.0,9.0,62,0.00,,,0.00,Wunderground v.1.15,2013-03-21 08:36:00,
2013-03-21 03:42:00,27.8,15.7,30.01,NW,318,3.0,9.0,60,0.00,,,0.00,Wunderground v.1.15,2013-03-21 08:42:00,
2013-03-21 03:47:00,27.7,16.0,30.01,NW,317,2.0,9.0,61,0.00,,,0.00,Wunderground v.1.15,2013-03-21 08:47:00,
2013-03-21 03:52:00,27.5,15.8,30.01,NNW,333,2.0,9.0,61,0.00,,,0.00,Wunderground v.1.15,2013-03-21 08:52:00,
2013-03-21 03:58:00,27.3,15.6,30.01,North,352,2.0,9.0,61,0.00,,,0.00,Wunderground v.1.15,2013-03-21 08:58:00,
2013-03-21 04:03:00,27.2,15.5,30.01,NW,317,3.0,9.0,61,0.00,,,0.00,Wunderground v.1.15,2013-03-21 09:03:00,
2013-03-21 04:09:00,27.1,14.7,30.01,NW,321,4.0,9.0,59,0.00,,,0.00,Wunderground v.1.15,2013-03-21 09:09:00,
2013-03-21 04:14:00,27.0,13.8,30.01,NNE,15,5.0,9.0,57,0.00,,,0.00,Wunderground v.1.15,2013-03-21 09:14:00,
2013-03-21 04:19:00,27.0,13.8,30.01,NNE,33,5.0,9.0,57,0.00,,,0.00,Wunderground v.1.15,2013-03-21 09:19:00,
2013-03-21 04:25:00,26.9,14.1,30.01,North,5,4.0,9.0,58,0.00,,,0.00,Wunderground v.1.15,2013-03-21 09:25:00,
2013-03-21 04:30:00,26.7,13.9,30.02,NW,309,3.0,3.0,58,0.00,,,0.00,Wunderground v.1.15,2013-03-21 09:30:00,
2013-03-21 04:35:00,26.6,13.8,30.02,NW,311,2.0,9.0,58,0.00,,,0.00,Wunderground v.1.15,2013-03-21 09:35:00,
2013-03-21 04:41:00,26.4,13.6,30.01,NNW,332,2.0,9.0,58,0.00,,,0.00,Wunderground v.1.15,2013-03-21 09:41:00,
2013-03-21 04:46:00,26.4,13.6,30.01,North,352,3.0,9.0,58,0.00,,,0.00,Wunderground v.1.15,2013-03-21 09:46:00,
2013-03-21 04:51:00,26.2,13.4,30.02,NNW,334,3.0,9.0,58,0.00,,,0.00,Wunderground v.1.15,2013-03-21 09:51:00,
2013-03-21 04:57:00,26.3,13.1,30.02,NNW,334,4.0,9.0,57,0.00,,,0.00,Wunderground v.1.15,2013-03-21 09:57:00,
2013-03-21 05:02:00,26.2,13.4,30.02,NNW,330,4.0,9.0,58,0.00,,,0.00,Wunderground v.1.15,2013-03-21 10:02:00,
2013-03-21 05:07:00,26.1,13.3,30.02,North,2,3.0,9.0,58,0.00,,,0.00,Wunderground v.1.15,2013-03-21 10:07:00,
2013-03-21 05:12:00,25.9,13.1,30.02,NNW,330,3.0,9.0,58,0.00,,,0.00,Wunderground v.1.15,2013-03-21 10:12:00,
2013-03-21 05:18:00,25.7,12.9,30.02,North,354,3.0,9.0,58,0.00,,,0.00,Wunderground v.1.15,2013-03-21 10:18:00,
2013-03-21 05:23:00,25.6,12.9,30.02,North,8,3.0,9.0,58,0.00,,,0.00,Wunderground v.1.15,2013-03-21 10:23:00,
2013-03-21 05:28:00,25.4,12.7,30.02,NW,306,3.0,9.0,58,0.00,,,0.00,Wunderground v.1.15,2013-03-21 10:28:00,
2013-03-21 05:34:00,25.3,12.6,30.02,North,6,3.0,9.0,58,0.00,,,0.00,Wunderground v.1.15,2013-03-21 10:34:00,
2013-03-21 05:40:00,25.1,11.6,30.02,North,5,4.0,9.0,56,0.00,,,0.00,Wunderground v.1.15,2013-03-21 10:40:00,
2013-03-21 05:45:00,25.0,12.3,30.02,NNW,344,4.0,9.0,58,0.00,,,0.00,Wunderground v.1.15,2013-03-21 10:45:00,
2013-03-21 05:51:00,24.8,11.3,30.02,North,5,4.0,9.0,56,0.00,,,0.00,Wunderground v.1.15,2013-03-21 10:51:00,
2013-03-21 05:57:00,24.7,10.8,30.02,NNW,342,5.0,9.0,55,0.00,,,0.00,Wunderground v.1.15,2013-03-21 10:57:00,
2013-03-21 06:03:00,24.5,11.0,30.02,NW,318,3.0,9.0,56,0.00,,,0.00,Wunderground v.1.15,2013-03-21 11:03:00,
2013-03-21 06:08:00,24.4,10.1,30.02,NE,48,3.0,9.0,54,0.00,,,0.00,Wunderground v.1.15,2013-03-21 11:08:00,
2013-03-21 06:13:00,24.3,10.4,30.02,NNW,330,4.0,9.0,55,0.00,,,0.00,Wunderground v.1.15,2013-03-21 11:13:00,
2013-03-21 06:19:00,24.2,10.3,30.02,NW,316,3.0,9.0,55,0.00,,,0.00,Wunderground v.1.15,2013-03-21 11:19:00,
2013-03-21 06:24:00,24.1,10.2,30.02,NW,321,3.0,9.0,55,0.00,,,0.00,Wunderground v.1.15,2013-03-21 11:24:00,
2013-03-21 06:29:00,24.0,10.6,30.02,NW,313,3.0,9.0,56,0.00,,,0.00,Wunderground v.1.15,2013-03-21 11:29:00,
2013-03-21 06:35:00,23.9,10.5,30.02,NNW,330,3.0,9.0,56,0.00,,,0.00,Wunderground v.1.15,2013-03-21 11:35:00,
2013-03-21 06:41:00,23.8,10.8,30.02,NW,316,3.0,9.0,57,0.00,,,0.00,Wunderground v.1.15,2013-03-21 11:41:00,
2013-03-21 06:47:00,23.6,10.2,30.02,NW,314,2.0,9.0,56,0.00,,,0.00,Wunderground v.1.15,2013-03-21 11:47:00,
2013-03-21 06:53:00,23.5,10.5,30.03,NW,317,2.0,9.0,57,0.00,,,0.00,Wunderground v.1.15,2013-03-21 11:53:00,
2013-03-21 06:59:00,23.4,10.4,30.03,NW,314,2.0,9.0,57,0.00,,,0.00,Wunderground v.1.15,2013-03-21 11:59:00,
2013-03-21 07:05:00,23.3,11.1,30.03,NW,311,1.0,9.0,59,0.00,,,0.00,Wunderground v.1.15,2013-03-21 12:05:00,
2013-03-21 07:11:00,23.1,11.6,30.03,NW,310,0.0,9.0,61,0.00,,,0.00,Wunderground v.1.15,2013-03-21 12:11:00,
2013-03-21 07:17:00,23.2,11.4,30.03,NW,310,0.0,9.0,60,0.00,,,0.00,Wunderground v.1.15,2013-03-21 12:17:00,
2013-03-21 07:22:00,23.5,11.3,30.04,NW,315,0.0,9.0,59,0.00,,,0.00,Wunderground v.1.15,2013-03-21 12:22:00,
2013-03-21 07:27:00,23.9,10.9,30.04,NW,313,1.0,9.0,57,0.00,,,0.00,Wunderground v.1.15,2013-03-21 12:27:00,
2013-03-21 07:33:00,24.2,11.1,30.05,NW,310,1.0,9.0,57,0.00,,,0.00,Wunderground v.1.15,2013-03-21 12:33:00,
2013-03-21 07:39:00,24.4,10.9,30.05,NW,306,1.0,9.0,56,0.00,,,0.00,Wunderground v.1.15,2013-03-21 12:39:00,
2013-03-21 07:44:00,24.7,11.2,30.05,NW,307,1.0,9.0,56,0.00,,,0.00,Wunderground v.1.15,2013-03-21 12:44:00,
2013-03-21 07:49:00,24.9,11.0,30.06,NW,310,1.0,9.0,55,0.00,,,0.00,Wunderground v.1.15,2013-03-21 12:49:00,
2013-03-21 07:55:00,25.2,10.9,30.06,NW,317,1.0,9.0,54,0.00,,,0.00,Wunderground v.1.15,2013-03-21 12:55:00,
2013-03-21 08:00:00,25.4,11.0,30.06,NW,314,1.0,9.0,54,0.00,,,0.00,Wunderground v.1.15,2013-03-21 13:00:00,
2013-03-21 08:05:00,25.4,10.6,30.06,NW,308,2.0,9.0,53,0.00,,,0.00,Wunderground v.1.15,2013-03-21 13:05:00,
2013-03-21 08:11:00,25.7,11.3,30.06,NW,313,2.0,9.0,54,0.00,,,0.00,Wunderground v.1.15,2013-03-21 13:11:00,
2013-03-21 08:16:00,26.0,10.8,30.06,NW,325,1.0,9.0,52,0.00,,,0.00,Wunderground v.1.15,2013-03-21 13:16:00,
2013-03-21 08:21:00,26.1,10.9,30.06,WNW,292,2.0,9.0,52,0.00,,,0.00,Wunderground v.1.15,2013-03-21 13:21:00,
2013-03-21 08:27:00,26.2,10.9,30.06,WNW,302,2.0,9.0,52,0.00,,,0.00,Wunderground v.1.15,2013-03-21 13:27:00,
2013-03-21 08:33:00,26.7,11.8,30.07,NW,310,1.0,9.0,53,0.00,,,0.00,Wunderground v.1.15,2013-03-21 13:33:00,
2013-03-21 08:38:00,27.2,11.0,30.06,NW,308,2.0,9.0,50,0.00,,,0.00,Wunderground v.1.15,2013-03-21 13:38:00,
2013-03-21 08:44:00,27.3,10.6,30.07,NW,307,2.0,9.0,49,0.00,,,0.00,Wunderground v.1.15,2013-03-21 13:44:00,
2013-03-21 08:49:00,27.8,10.2,30.07,NW,317,3.0,9.0,47,0.00,,,0.00,Wunderground v.1.15,2013-03-21 13:49:00,
2013-03-21 08:55:00,27.7,10.1,30.07,NW,306,3.0,9.0,47,0.00,,,0.00,Wunderground v.1.15,2013-03-21 13:55:00,
2013-03-21 09:00:00,28.0,10.3,30.06,North,2,3.0,9.0,47,0.00,,,0.00,Wunderground v.1.15,2013-03-21 14:00:00,
2013-03-21 09:05:00,28.2,10.5,30.06,NW,314,2.0,9.0,47,0.00,,,0.00,Wunderground v.1.15,2013-03-21 14:05:00,
2013-03-21 09:11:00,28.8,9.6,30.06,NW,321,2.0,9.0,44,0.00,,,0.00,Wunderground v.1.15,2013-03-21 14:11:00,
2013-03-21 09:16:00,29.1,10.9,30.07,NW,309,2.0,9.0,46,0.00,,,0.00,Wunderground v.1.15,2013-03-21 14:16:00,
2013-03-21 09:21:00,29.5,10.2,30.07,NNW,328,3.0,9.0,44,0.00,,,0.00,Wunderground v.1.15,2013-03-21 14:21:00,
2013-03-21 09:27:00,29.7,9.4,30.07,NNE,27,4.0,9.0,42,0.00,,,0.00,Wunderground v.1.15,2013-03-21 14:27:00,
2013-03-21 09:32:00,29.8,9.5,30.07,NW,313,3.0,9.0,42,0.00,,,0.00,Wunderground v.1.15,2013-03-21 14:32:00,
2013-03-21 09:37:00,29.9,9.0,30.07,North,352,4.0,9.0,41,0.00,,,0.00,Wunderground v.1.15,2013-03-21 14:37:00,
2013-03-21 09:43:00,30.2,9.3,30.07,NNW,341,5.0,9.0,41,0.00,,,0.00,Wunderground v.1.15,2013-03-21 14:43:00,
2013-03-21 09:48:00,30.3,9.4,30.07,North,7,4.0,9.0,41,0.00,,,0.00,Wunderground v.1.15,2013-03-21 14:48:00,
2013-03-21 09:54:00,30.4,9.5,30.07,North,358,4.0,9.0,41,0.00,,,0.00,Wunderground v.1.15,2013-03-21 14:54:00,
2013-03-21 09:59:00,30.8,8.7,30.07,NW,322,4.0,9.0,39,0.00,,,0.00,Wunderground v.1.15,2013-03-21 14:59:00,
2013-03-21 10:04:00,30.9,8.2,30.07,North,354,4.0,11.0,38,0.00,,,0.00,Wunderground v.1.15,2013-03-21 15:04:00,
2013-03-21 10:10:00,31.4,9.3,30.07,NNW,347,5.0,5.0,39,0.00,,,0.00,Wunderground v.1.15,2013-03-21 15:10:00,
2013-03-21 10:15:00,32.1,9.9,30.07,WNW,296,3.0,9.0,39,0.00,,,0.00,Wunderground v.1.15,2013-03-21 15:15:00,
2013-03-21 10:21:00,32.2,10.0,30.07,NW,309,2.0,9.0,39,0.00,,,0.00,Wunderground v.1.15,2013-03-21 15:21:00,
2013-03-21 10:26:00,32.1,9.3,30.07,NW,311,4.0,9.0,38,0.00,,,0.00,Wunderground v.1.15,2013-03-21 15:26:00,
2013-03-21 10:32:00,32.6,9.8,30.06,WNW,302,4.0,9.0,38,0.00,,,0.00,Wunderground v.1.15,2013-03-21 15:32:00,
2013-03-21 10:38:00,33.0,8.9,30.07,NNW,342,3.0,9.0,36,0.00,,,0.00,Wunderground v.1.15,2013-03-21 15:38:00,
2013-03-21 10:43:00,33.4,10.5,30.06,NW,316,3.0,9.0,38,0.00,,,0.00,Wunderground v.1.15,2013-03-21 15:43:00,
2013-03-21 10:49:00,33.3,8.6,30.06,NNW,347,6.0,9.0,35,0.00,,,0.00,Wunderground v.1.15,2013-03-21 15:49:00,
2013-03-21 10:55:00,33.1,7.7,30.06,North,358,6.0,10.0,34,0.00,,,0.00,Wunderground v.1.15,2013-03-21 15:55:00,
2013-03-21 11:00:00,33.3,7.9,30.06,NNE,23,6.0,6.0,34,0.00,,,0.00,Wunderground v.1.15,2013-03-21 16:00:00,
2013-03-21 11:06:00,33.3,9.2,30.06,NNW,337,6.0,12.0,36,0.00,,,0.00,Wunderground v.1.15,2013-03-21 16:06:00,
2013-03-21 11:11:00,33.8,10.8,30.06,NNW,328,6.0,9.0,38,0.00,,,0.00,Wunderground v.1.15,2013-03-21 16:11:00,
2013-03-21 11:16:00,34.2,10.0,30.06,WNW,302,5.0,9.0,36,0.00,,,0.00,Wunderground v.1.15,2013-03-21 16:16:00,
2013-03-21 11:21:00,34.5,9.6,30.06,NNW,339,4.0,9.0,35,0.00,,,0.00,Wunderground v.1.15,2013-03-21 16:21:00,
2013-03-21 11:27:00,34.9,10.0,30.06,NW,308,3.0,9.0,35,0.00,,,0.00,Wunderground v.1.15,2013-03-21 16:27:00,
2013-03-21 11:32:00,35.0,9.4,30.05,NW,321,3.0,9.0,34,0.00,,,0.00,Wunderground v.1.15,2013-03-21 16:32:00,
2013-03-21 11:38:00,35.6,11.2,30.05,North,349,3.0,9.0,36,0.00,,,0.00,Wunderground v.1.15,2013-03-21 16:38:00,
2013-03-21 11:43:00,35.5,11.1,30.05,North,8,4.0,9.0,36,0.00,,,0.00,Wunderground v.1.15,2013-03-21 16:43:00,
2013-03-21 11:49:00,35.5,10.5,30.04,North,5,5.0,9.0,35,0.00,,,0.00,Wunderground v.1.15,2013-03-21 16:49:00,
2013-03-21 11:54:00,35.5,9.2,30.05,NNW,337,5.0,9.0,33,0.00,,,0.00,Wunderground v.1.15,2013-03-21 16:54:00,
2013-03-21 11:59:00,35.6,10.6,30.04,WNW,285,4.0,9.0,35,0.00,,,0.00,Wunderground v.1.15,2013-03-21 16:59:00,
2013-03-21 12:05:00,36.2,11.1,30.04,North,349,4.0,9.0,35,0.00,,,0.00,Wunderground v.1.15,2013-03-21 17:05:00,
2013-03-21 12:10:00,36.6,11.5,30.04,NW,320,4.0,4.0,35,0.00,,,0.00,Wunderground v.1.15,2013-03-21 17:10:00,
2013-03-21 12:15:00,37.1,10.6,30.04,North,1,4.0,9.0,33,0.00,,,0.00,Wunderground v.1.15,2013-03-21 17:15:00,
2013-03-21 12:21:00,36.8,11.7,30.04,WNW,303,5.0,9.0,35,0.00,,,0.00,Wunderground v.1.15,2013-03-21 17:21:00,
2013-03-21 12:27:00,37.6,11.7,30.03,NE,46,4.0,9.0,34,0.00,,,0.00,Wunderground v.1.15,2013-03-21 17:27:00,
2013-03-21 12:32:00,37.5,11.6,30.03,NW,311,3.0,9.0,34,0.00,,,0.00,Wunderground v.1.15,2013-03-21 17:32:00,
2013-03-21 12:38:00,38.3,11.7,30.03,NNE,17,2.0,9.0,33,0.00,,,0.00,Wunderground v.1.15,2013-03-21 17:38:00,
2013-03-21 12:44:00,38.5,11.8,30.03,North,9,2.0,9.0,33,0.00,,,0.00,Wunderground v.1.15,2013-03-21 17:44:00,
2013-03-21 12:50:00,38.0,11.4,30.02,NNW,332,5.0,5.0,33,0.00,,,0.00,Wunderground v.1.15,2013-03-21 17:50:00,
2013-03-21 12:56:00,38.4,11.1,30.02,NW,320,4.0,9.0,32,0.00,,,0.00,Wunderground v.1.15,2013-03-21 17:56:00,
2013-03-21 13:01:00,38.5,11.1,30.02,NW,306,4.0,9.0,32,0.00,,,0.00,Wunderground v.1.15,2013-03-21 18:01:00,
2013-03-21 13:06:00,38.5,11.1,30.02,NW,309,3.0,9.0,32,0.00,,,0.00,Wunderground v.1.15,2013-03-21 18:06:00,
2013-03-21 13:12:00,38.7,11.3,30.02,NNW,339,5.0,9.0,32,0.00,,,0.00,Wunderground v.1.15,2013-03-21 18:12:00,
2013-03-21 13:17:00,38.8,12.1,30.02,NNE,13,5.0,10.0,33,0.00,,,0.00,Wunderground v.1.15,2013-03-21 18:17:00,
2013-03-21 13:23:00,38.7,11.3,30.02,NW,306,5.0,9.0,32,0.00,,,0.00,Wunderground v.1.15,2013-03-21 18:23:00,
2013-03-21 13:29:00,39.2,12.5,30.01,NNW,338,3.0,9.0,33,0.00,,,0.00,Wunderground v.1.15,2013-03-21 18:29:00,
2013-03-21 13:34:00,39.8,13.0,30.01,NNE,30,5.0,9.0,33,0.00,,,0.00,Wunderground v.1.15,2013-03-21 18:34:00,
2013-03-21 13:40:00,40.6,13.7,30.01,NNE,16,5.0,9.0,33,0.00,,,0.00,Wunderground v.1.15,2013-03-21 18:40:00,
2013-03-21 13:45:00,40.9,13.3,30.01,NNW,331,5.0,9.0,32,0.00,,,0.00,Wunderground v.1.15,2013-03-21 18:45:00,
2013-03-21 13:50:00,40.6,13.0,30.01,NNE,16,4.0,9.0,32,0.00,,,0.00,Wunderground v.1.15,2013-03-21 18:50:00,
2013-03-21 13:57:00,40.8,14.6,30.01,NNW,332,5.0,9.0,34,0.00,,,0.00,Wunderground v.1.15,2013-03-21 18:57:00,
2013-03-21 14:02:00,40.8,13.2,30.01,NW,321,4.0,9.0,32,0.00,,,0.00,Wunderground v.1.15,2013-03-21 19:02:00,
2013-03-21 14:08:00,40.9,14.0,30.01,NW,313,4.0,9.0,33,0.00,,,0.00,Wunderground v.1.15,2013-03-21 19:08:00,
2013-03-21 14:13:00,40.6,12.3,30.00,ENE,58,6.0,11.0,31,0.00,,,0.00,Wunderground v.1.15,2013-03-21 19:13:00,
2013-03-21 14:18:00,41.6,15.3,30.00,North,359,5.0,11.0,34,0.00,,,0.00,Wunderground v.1.15,2013-03-21 19:18:00,
2013-03-21 14:24:00,42.6,15.5,30.00,NW,320,2.0,9.0,33,0.00,,,0.00,Wunderground v.1.15,2013-03-21 19:24:00,
2013-03-21 14:29:00,42.8,14.2,30.00,WNW,294,2.0,9.0,31,0.00,,,0.00,Wunderground v.1.15,2013-03-21 19:29:00,
2013-03-21 14:35:00,42.2,13.7,30.00,NNW,333,4.0,9.0,31,0.00,,,0.00,Wunderground v.1.15,2013-03-21 19:35:00,
2013-03-21 14:40:00,41.7,14.0,30.00,WNW,294,5.0,5.0,32,0.00,,,0.00,Wunderground v.1.15,2013-03-21 19:40:00,
2013-03-21 14:45:00,42.4,14.6,30.00,NNW,348,3.0,9.0,32,0.00,,,0.00,Wunderground v.1.15,2013-03-21 19:45:00,
2013-03-21 14:51:00,42.6,14.8,30.00,WNW,297,3.0,9.0,32,0.00,,,0.00,Wunderground v.1.15,2013-03-21 19:51:00,
2013-03-21 14:56:00,42.5,14.7,30.00,NNW,347,5.0,9.0,32,0.00,,,0.00,Wunderground v.1.15,2013-03-21 19:56:00,
2013-03-21 15:01:00,42.8,14.2,30.00,WNW,294,4.0,9.0,31,0.00,,,0.00,Wunderground v.1.15,2013-03-21 20:01:00,
2013-03-21 15:07:00,42.8,14.2,30.00,WNW,286,4.0,9.0,31,0.00,,,0.00,Wunderground v.1.15,2013-03-21 20:07:00,
2013-03-21 15:13:00,42.6,14.0,30.00,NW,311,5.0,9.0,31,0.00,,,0.00,Wunderground v.1.15,2013-03-21 20:13:00,
2013-03-21 15:18:00,42.3,13.8,30.00,NW,324,5.0,9.0,31,0.00,,,0.00,Wunderground v.1.15,2013-03-21 20:18:00,
2013-03-21 15:24:00,42.7,14.8,29.99,NW,309,4.0,9.0,32,0.00,,,0.00,Wunderground v.1.15,2013-03-21 20:24:00,
2013-03-21 15:29:00,42.2,13.7,29.99,WNW,288,5.0,9.0,31,0.00,,,0.00,Wunderground v.1.15,2013-03-21 20:29:00,
2013-03-21 15:35:00,42.9,15.0,29.99,WNW,294,4.0,9.0,32,0.00,,,0.00,Wunderground v.1.15,2013-03-21 20:35:00,
2013-03-21 15:41:00,42.5,13.2,29.99,NW,309,4.0,9.0,30,0.00,,,0.00,Wunderground v.1.15,2013-03-21 20:41:00,
2013-03-21 15:46:00,43.2,15.3,29.99,NW,314,4.0,9.0,32,0.00,,,0.00,Wunderground v.1.15,2013-03-21 20:46:00,
2013-03-21 15:53:00,43.1,12.9,29.98,NW,313,4.0,9.0,29,0.00,,,0.00,Wunderground v.1.15,2013-03-21 20:53:00,
2013-03-21 15:59:00,42.8,13.5,29.98,NW,323,4.0,9.0,30,0.00,,,0.00,Wunderground v.1.15,2013-03-21 20:59:00,
2013-03-21 16:04:00,42.9,14.3,29.99,WNW,283,3.0,9.0,31,0.00,,,0.00,Wunderground v.1.15,2013-03-21 21:04:00,
2013-03-21 16:10:00,43.1,14.5,29.98,NW,307,3.0,9.0,31,0.00,,,0.00,Wunderground v.1.15,2013-03-21 21:10:00,
2013-03-21 16:15:00,42.7,13.4,29.98,North,6,4.0,9.0,30,0.00,,,0.00,Wunderground v.1.15,2013-03-21 21:15:00,
2013-03-21 16:21:00,42.7,13.4,29.98,NW,321,5.0,6.0,30,0.00,,,0.00,Wunderground v.1.15,2013-03-21 21:21:00,
2013-03-21 16:27:00,43.0,12.9,29.98,NNW,330,5.0,9.0,29,0.00,,,0.00,Wunderground v.1.15,2013-03-21 21:27:00,
2013-03-21 16:32:00,42.9,13.5,29.98,NNW,344,4.0,9.0,30,0.00,,,0.00,Wunderground v.1.15,2013-03-21 21:32:00,
2013-03-21 16:38:00,42.7,13.4,29.98,NNW,344,4.0,9.0,30,0.00,,,0.00,Wunderground v.1.15,2013-03-21 21:38:00,
2013-03-21 16:43:00,42.9,13.5,29.97,NW,306,4.0,9.0,30,0.00,,,0.00,Wunderground v.1.15,2013-03-21 21:43:00,
2013-03-21 16:50:00,42.7,14.8,29.97,WNW,293,5.0,5.0,32,0.00,,,0.00,Wunderground v.1.15,2013-03-21 21:50:00,
2013-03-21 16:55:00,43.0,13.6,29.98,NW,323,4.0,9.0,30,0.00,,,0.00,Wunderground v.1.15,2013-03-21 21:55:00,
2013-03-21 17:01:00,43.5,14.8,29.97,North,351,2.0,9.0,31,0.00,,,0.00,Wunderground v.1.15,2013-03-21 22:01:00,
2013-03-21 17:06:00,43.9,14.4,29.97,NW,324,2.0,9.0,30,0.00,,,0.00,Wunderground v.1.15,2013-03-21 22:06:00,
2013-03-21 17:12:00,44.0,14.5,29.97,WNW,299,2.0,9.0,30,0.00,,,0.00,Wunderground v.1.15,2013-03-21 22:12:00,
2013-03-21 17:18:00,43.4,13.2,29.97,WNW,302,3.0,9.0,29,0.00,,,0.00,Wunderground v.1.15,2013-03-21 22:18:00,
2013-03-21 17:24:00,42.5,13.9,29.97,North,354,3.0,9.0,31,0.00,,,0.00,Wunderground v.1.15,2013-03-21 22:24:00,
2013-03-21 17:29:00,42.2,14.4,29.97,NW,313,3.0,9.0,32,0.00,,,0.00,Wunderground v.1.15,2013-03-21 22:29:00,
2013-03-21 17:35:00,42.1,13.6,29.97,North,358,2.0,9.0,31,0.00,,,0.00,Wunderground v.1.15,2013-03-21 22:35:00,
2013-03-21 17:41:00,42.1,14.3,29.97,NW,309,2.0,9.0,32,0.00,,,0.00,Wunderground v.1.15,2013-03-21 22:41:00,
2013-03-21 17:47:00,41.8,13.3,29.97,NW,316,3.0,9.0,31,0.00,,,0.00,Wunderground v.1.15,2013-03-21 22:47:00,
2013-03-21 17:53:00,41.3,13.6,29.97,NNW,331,4.0,9.0,32,0.00,,,0.00,Wunderground v.1.15,2013-03-21 22:53:00,
2013-03-21 17:58:00,41.1,13.4,29.97,North,354,3.0,9.0,32,0.00,,,0.00,Wunderground v.1.15,2013-03-21 22:58:00,
2013-03-21 18:04:00,40.8,13.2,29.97,NW,313,3.0,9.0,32,0.00,,,0.00,Wunderground v.1.15,2013-03-21 23:04:00,
2013-03-21 18:09:00,40.7,13.1,29.97,NW,325,3.0,9.0,32,0.00,,,0.00,Wunderground v.1.15,2013-03-21 23:09:00,
2013-03-21 18:15:00,40.5,13.6,29.96,NW,313,2.0,9.0,33,0.00,,,0.00,Wunderground v.1.15,2013-03-21 23:15:00,
2013-03-21 18:20:00,40.4,13.5,29.97,North,8,2.0,9.0,33,0.00,,,0.00,Wunderground v.1.15,2013-03-21 23:20:00,
2013-03-21 18:25:00,40.2,14.0,29.97,NW,323,2.0,9.0,34,0.00,,,0.00,Wunderground v.1.15,2013-03-21 23:25:00,
2013-03-21 18:32:00,39.9,13.8,29.97,NW,308,2.0,9.0,34,0.00,,,0.00,Wunderground v.1.15,2013-03-21 23:32:00,
2013-03-21 18:38:00,39.6,14.2,29.97,NW,309,2.0,9.0,35,0.00,,,0.00,Wunderground v.1.15,2013-03-21 23:38:00,
2013-03-21 18:43:00,39.4,14.0,29.97,NW,313,2.0,9.0,35,0.00,,,0.00,Wunderground v.1.15,2013-03-21 23:43:00,
2013-03-21 18:49:00,39.1,13.7,29.97,NW,314,2.0,9.0,35,0.00,,,0.00,Wunderground v.1.15,2013-03-21 23:49:00,
2013-03-21 18:54:00,38.9,13.5,29.98,NW,308,2.0,9.0,35,0.00,,,0.00,Wunderground v.1.15,2013-03-21 23:54:00,
2013-03-21 19:00:00,38.7,14.0,29.98,NW,311,2.0,9.0,36,0.00,,,0.00,Wunderground v.1.15,2013-03-22 00:00:00,
2013-03-21 19:04:00,38.7,14.0,29.98,WNW,302,2.0,9.0,36,0.00,,,0.00,Wunderground v.1.15,2013-03-22 00:04:00,
2013-03-21 19:10:00,38.5,13.8,29.99,NW,314,2.0,9.0,36,0.00,,,0.00,Wunderground v.1.15,2013-03-22 00:10:00,
2013-03-21 19:15:00,38.4,13.7,29.99,NW,313,2.0,9.0,36,0.00,,,0.00,Wunderground v.1.15,2013-03-22 00:15:00,
2013-03-21 19:21:00,38.2,13.6,29.98,NW,310,2.0,9.0,36,0.00,,,0.00,Wunderground v.1.15,2013-03-22 00:21:00,
2013-03-21 19:26:00,38.0,14.0,29.98,NW,311,2.0,9.0,37,0.00,,,0.00,Wunderground v.1.15,2013-03-22 00:26:00,
2013-03-21 19:32:00,37.9,13.9,29.98,NW,309,2.0,9.0,37,0.00,,,0.00,Wunderground v.1.15,2013-03-22 00:32:00,
2013-03-21 19:37:00,37.6,14.2,29.98,NNW,328,2.0,9.0,38,0.00,,,0.00,Wunderground v.1.15,2013-03-22 00:37:00,
2013-03-21 19:43:00,37.2,13.9,29.98,NW,308,2.0,9.0,38,0.00,,,0.00,Wunderground v.1.15,2013-03-22 00:43:00,
2013-03-21 19:48:00,37.1,14.4,29.99,WNW,303,1.0,9.0,39,0.00,,,0.00,Wunderground v.1.15,2013-03-22 00:48:00,
2013-03-21 19:54:00,37.0,14.9,29.99,NW,307,2.0,9.0,40,0.00,,,0.00,Wunderground v.1.15,2013-03-22 00:54:00,
2013-03-21 19:59:00,37.1,14.4,29.99,NW,311,2.0,9.0,39,0.00,,,0.00,Wunderground v.1.15,2013-03-22 00:59:00,
2013-03-21 20:04:00,37.1,13.8,30.00,WNW,303,2.0,9.0,38,0.00,,,0.00,Wunderground v.1.15,2013-03-22 01:04:00,
2013-03-21 20:10:00,37.1,13.8,30.00,WNW,295,1.0,9.0,38,0.00,,,0.00,Wunderground v.1.15,2013-03-22 01:10:00,
2013-03-21 20:15:00,37.1,13.8,30.00,NNW,330,1.0,9.0,38,0.00,,,0.00,Wunderground v.1.15,2013-03-22 01:15:00,
2013-03-21 20:20:00,37.1,13.8,30.00,NW,320,2.0,9.0,38,0.00,,,0.00,Wunderground v.1.15,2013-03-22 01:20:00,
2013-03-21 20:26:00,37.0,14.3,30.00,NW,306,1.0,9.0,39,0.00,,,0.00,Wunderground v.1.15,2013-03-22 01:26:00,
2013-03-21 20:31:00,36.7,14.6,30.00,West,271,1.0,9.0,40,0.00,,,0.00,Wunderground v.1.15,2013-03-22 01:31:00,
2013-03-21 20:36:00,36.1,16.3,30.00,NW,306,1.0,9.0,44,0.00,,,0.00,Wunderground v.1.15,2013-03-22 01:36:00,
2013-03-21 20:42:00,35.9,15.0,30.00,NW,306,1.0,9.0,42,0.00,,,0.00,Wunderground v.1.15,2013-03-22 01:42:00,
2013-03-21 20:47:00,35.8,14.4,30.00,NW,315,2.0,9.0,41,0.00,,,0.00,Wunderground v.1.15,2013-03-22 01:47:00,
2013-03-21 20:52:00,35.8,14.9,30.00,NW,310,2.0,9.0,42,0.00,,,0.00,Wunderground v.1.15,2013-03-22 01:52:00,
2013-03-21 20:58:00,35.5,14.6,30.01,WNW,302,1.0,9.0,42,0.00,,,0.00,Wunderground v.1.15,2013-03-22 01:58:00,
2013-03-21 21:03:00,35.5,14.6,30.01,NW,306,1.0,9.0,42,0.00,,,0.00,Wunderground v.1.15,2013-03-22 02:03:00,
2013-03-21 21:09:00,35.4,14.6,30.01,NW,321,1.0,9.0,42,0.00,,,0.00,Wunderground v.1.15,2013-03-22 02:09:00,
2013-03-21 21:14:00,35.6,14.2,30.02,NNW,330,1.0,9.0,41,0.00,,,0.00,Wunderground v.1.15,2013-03-22 02:14:00,
2013-03-21 21:19:00,35.9,14.5,30.02,NW,310,2.0,9.0,41,0.00,,,0.00,Wunderground v.1.15,2013-03-22 02:19:00,
2013-03-21 21:25:00,35.6,14.2,30.02,NW,315,2.0,9.0,41,0.00,,,0.00,Wunderground v.1.15,2013-03-22 02:25:00,
2013-03-21 21:30:00,35.4,14.0,30.02,NW,313,2.0,9.0,41,0.00,,,0.00,Wunderground v.1.15,2013-03-22 02:30:00,
2013-03-21 21:36:00,35.3,14.5,30.03,NW,307,1.0,9.0,42,0.00,,,0.00,Wunderground v.1.15,2013-03-22 02:36:00,
2013-03-21 21:41:00,35.0,14.7,30.03,NW,310,1.0,9.0,43,0.00,,,0.00,Wunderground v.1.15,2013-03-22 02:41:00,
2013-03-21 21:47:00,34.7,15.0,30.03,NW,307,1.0,9.0,44,0.00,,,0.00,Wunderground v.1.15,2013-03-22 02:47:00,
2013-03-21 21:53:00,34.6,14.9,30.03,NW,320,2.0,9.0,44,0.00,,,0.00,Wunderground v.1.15,2013-03-22 02:53:00,
2013-03-21 21:58:00,34.5,15.3,30.03,NW,311,2.0,9.0,45,0.00,,,0.00,Wunderground v.1.15,2013-03-22 02:58:00,
2013-03-21 22:04:00,34.5,15.3,30.03,NW,310,1.0,9.0,45,0.00,,,0.00,Wunderground v.1.15,2013-03-22 03:04:00,
2013-03-21 22:09:00,34.3,15.1,30.03,NW,311,1.0,9.0,45,0.00,,,0.00,Wunderground v.1.15,2013-03-22 03:09:00,
2013-03-21 22:15:00,34.2,15.5,30.03,NW,311,1.0,9.0,46,0.00,,,0.00,Wunderground v.1.15,2013-03-22 03:15:00,
2013-03-21 22:20:00,33.9,15.3,30.04,NW,310,1.0,9.0,46,0.00,,,0.00,Wunderground v.1.15,2013-03-22 03:20:00,
2013-03-21 22:25:00,33.8,15.2,30.03,NW,310,1.0,9.0,46,0.00,,,0.00,Wunderground v.1.15,2013-03-22 03:25:00,
2013-03-21 22:32:00,33.7,15.6,30.03,NW,310,1.0,9.0,47,0.00,,,0.00,Wunderground v.1.15,2013-03-22 03:32:00,
2013-03-21 22:38:00,33.7,15.6,30.03,NW,310,1.0,9.0,47,0.00,,,0.00,Wunderground v.1.15,2013-03-22 03:38:00,
2013-03-21 22:43:00,33.6,15.5,30.03,NW,309,1.0,9.0,47,0.00,,,0.00,Wunderground v.1.15,2013-03-22 03:43:00,
2013-03-21 22:48:00,33.1,16.5,30.03,NW,316,1.0,9.0,50,0.00,,,0.00,Wunderground v.1.15,2013-03-22 03:48:00,
2013-03-21 22:54:00,32.9,16.3,30.03,NW,311,1.0,9.0,50,0.00,,,0.00,Wunderground v.1.15,2013-03-22 03:54:00,
2013-03-21 22:59:00,33.1,16.0,30.03,NW,311,1.0,9.0,49,0.00,,,0.00,Wunderground v.1.15,2013-03-22 03:59:00,
2013-03-21 23:02:00,33.1,16.0,30.03,NW,311,1.0,9.0,49,0.00,,,0.00,Wunderground v.1.15,2013-03-22 04:02:00,
2013-03-21 23:05:00,33.1,16.5,30.03,NW,313,1.0,9.0,50,0.00,,,0.00,Wunderground v.1.15,2013-03-22 04:05:00,
2013-03-21 23:07:00,33.1,16.5,30.03,NW,314,1.0,9.0,50,0.00,,,0.00,Wunderground v.1.15,2013-03-22 04:07:00,
2013-03-21 23:11:00,33.1,16.0,30.03,NW,313,1.0,9.0,49,0.00,,,0.00,Wunderground v.1.15,2013-03-22 04:11:00,
2013-03-21 23:16:00,33.2,16.1,30.03,NW,313,1.0,9.0,49,0.00,,,0.00,Wunderground v.1.15,2013-03-22 04:16:00,
2013-03-21 23:22:00,33.4,16.3,30.03,NW,316,1.0,9.0,49,0.00,,,0.00,Wunderground v.1.15,2013-03-22 04:22:00,
2013-03-21 23:27:00,33.3,16.2,30.03,NW,313,1.0,9.0,49,0.00,,,0.00,Wunderground v.1.15,2013-03-22 04:27:00,
2013-03-21 23:32:00,33.3,16.6,30.03,NW,314,1.0,9.0,50,0.00,,,0.00,Wunderground v.1.15,2013-03-22 04:32:00,
2013-03-21 23:38:00,33.1,16.5,30.02,NNW,332,1.0,9.0,50,0.00,,,0.00,Wunderground v.1.15,2013-03-22 04:38:00,
2013-03-21 23:43:00,32.8,16.6,30.03,NW,324,2.0,9.0,51,0.00,,,0.00,Wunderground v.1.15,2013-03-22 04:43:00,
2013-03-21 23:49:00,32.7,16.5,30.03,NW,323,2.0,9.0,51,0.00,,,0.00,Wunderground v.1.15,2013-03-22 04:49:00,
2013-03-21 23:54:00,32.4,16.7,30.03,NW,313,2.0,9.0,52,0.00,,,0.00,Wunderground v.1.15,2013-03-22 04:54:00,
2013-03-21 23:59:00,32.3,16.6,30.03,NW,313,2.0,9.0,52,0.00,,,0.00,Wunderground v.1.15,2013-03-22 04:59:00,